| time (UTC) | temp F | wind direction | speed MPH | gust MPH | rain 1hr in | rain 24hr in | rain mn in | humidity % | barometer mb |
| 20260507040059 | 62 | 340 | 1.0 | 4.0 | 0.00 | 0.00 | 0.00 | 42 | 1014.2 |
| 20260507034613 | 67 | 288 | 1.0 | 2.0 | 0.00 | 0.00 | 0.00 | 34 | 1013.9 |
| 20260507033058 | 67 | 288 | 1.0 | 3.0 | 0.00 | 0.00 | 0.00 | 34 | 1013.7 |
| 20260507031558 | 67 | 288 | 1.0 | 3.0 | 0.00 | 0.00 | 0.00 | 35 | 1013.7 |
| 20260507024559 | 69 | 285 | 0.0 | 1.0 | 0.00 | 0.00 | 0.00 | 32 | 1013.4 |
| 20260507023056 | 72 | 341 | 0.0 | 0.0 | 0.00 | 0.00 | 0.00 | 29 | 1013.4 |
| 20260507021556 | 74 | 26 | 0.0 | 2.0 | 0.00 | 0.00 | 0.00 | 27 | 1013.4 |
| 20260507020053 | 74 | 330 | 0.0 | 7.0 | 0.00 | 0.00 | 0.00 | 27 | 1013.4 |
| 20260507014554 | 74 | 333 | 0.0 | 8.0 | 0.00 | 0.00 | 0.00 | 25 | 1013.4 |
| 20260507013059 | 74 | 243 | 1.0 | 9.0 | 0.00 | 0.00 | 0.00 | 26 | 1013.4 |
| 20260507011550 | 75 | 328 | 1.0 | 11.0 | 0.00 | 0.00 | 0.00 | 26 | 1013.4 |
| 20260507010048 | 76 | 306 | 0.0 | 5.0 | 0.00 | 0.00 | 0.00 | 25 | 1013.4 |
| 20260507004547 | 75 | 291 | 0.0 | 8.0 | 0.00 | 0.00 | 0.00 | 24 | 1013.4 |
| 20260507003046 | 75 | 49 | 1.0 | 10.0 | 0.00 | 0.00 | 0.00 | 22 | 1013.4 |
| 20260507001545 | 76 | 342 | 0.0 | 6.0 | 0.00 | 0.00 | 0.00 | 24 | 1013.5 |
| 20260507000051 | 75 | 304 | 0.0 | 9.0 | 0.00 | 0.00 | 0.00 | 24 | 1013.7 |
| 20260506234543 | 76 | 314 | 2.0 | 9.0 | 0.00 | 0.00 | 0.00 | 24 | 1013.7 |
| 20260506233040 | 75 | 46 | 2.0 | 11.0 | 0.00 | 0.00 | 0.00 | 24 | 1013.7 |
| 20260506231543 | 76 | 165 | 0.0 | 3.0 | 0.00 | 0.00 | 0.00 | 25 | 1013.8 |
| 20260506230038 | 74 | 17 | 7.0 | 12.0 | 0.00 | 0.00 | 0.00 | 26 | 1013.9 |
| 20260506224542 | 74 | 12 | 2.0 | 8.0 | 0.00 | 0.00 | 0.00 | 25 | 1014.0 |
| 20260506223037 | 74 | 326 | 6.0 | 13.0 | 0.00 | 0.00 | 0.00 | 28 | 1014.2 |
| 20260506221535 | 75 | 15 | 2.0 | 10.0 | 0.00 | 0.00 | 0.00 | 24 | 1014.5 |
| 20260506220038 | 74 | 43 | 2.0 | 11.0 | 0.00 | 0.00 | 0.00 | 24 | 1014.7 |
| 20260506214534 | 75 | 96 | 0.0 | 3.0 | 0.00 | 0.00 | 0.00 | 24 | 1014.9 |
| 20260506213033 | 73 | 76 | 1.0 | 6.0 | 0.00 | 0.00 | 0.00 | 25 | 1015.1 |
| 20260506211533 | 73 | 25 | 3.0 | 9.0 | 0.00 | 0.00 | 0.00 | 26 | 1015.3 |
| 20260506210028 | 73 | 68 | 0.0 | 11.0 | 0.00 | 0.00 | 0.00 | 27 | 1015.4 |
| 20260506204528 | 72 | 328 | 1.0 | 11.0 | 0.00 | 0.00 | 0.00 | 27 | 1015.7 |
| 20260506203028 | 71 | 325 | 1.0 | 10.0 | 0.00 | 0.00 | 0.00 | 27 | 1015.7 |
| 20260506201522 | 71 | 328 | 6.0 | 12.0 | 0.00 | 0.00 | 0.00 | 28 | 1015.7 |
| 20260506200021 | 70 | 247 | 5.0 | 11.0 | 0.00 | 0.00 | 0.00 | 30 | 1015.9 |
| 20260506194519 | 70 | 297 | 5.0 | 11.0 | 0.00 | 0.00 | 0.00 | 31 | 1016.2 |
| 20260506193016 | 70 | 349 | 5.0 | 11.0 | 0.00 | 0.00 | 0.00 | 29 | 1016.3 |
| 20260506191514 | 69 | 30 | 5.0 | 12.0 | 0.00 | 0.00 | 0.00 | 30 | 1016.5 |
| 20260506190011 | 68 | 314 | 6.0 | 13.0 | 0.00 | 0.00 | 0.00 | 30 | 1016.6 |
| 20260506184511 | 68 | 355 | 3.0 | 8.0 | 0.00 | 0.00 | 0.00 | 32 | 1016.6 |
| 20260506183011 | 68 | 349 | 2.0 | 8.0 | 0.00 | 0.00 | 0.00 | 38 | 1016.7 |
| 20260506181507 | 67 | 3 | 6.0 | 11.0 | 0.00 | 0.00 | 0.00 | 35 | 1016.8 |
| 20260506180005 | 66 | 36 | 7.0 | 12.0 | 0.00 | 0.00 | 0.00 | 36 | 1017.0 |
| 20260506174502 | 65 | 27 | 7.0 | 13.0 | 0.00 | 0.00 | 0.00 | 38 | 1016.9 |
| 20260506173100 | 64 | 20 | 8.0 | 12.0 | 0.00 | 0.00 | 0.00 | 40 | 1016.9 |
| 20260506171559 | 64 | 39 | 6.0 | 12.0 | 0.00 | 0.00 | 0.00 | 40 | 1016.7 |
| 20260506170057 | 63 | 70 | 7.0 | 13.0 | 0.00 | 0.00 | 0.00 | 46 | 1016.7 |
| 20260506164558 | 63 | 4 | 6.0 | 13.0 | 0.00 | 0.00 | 0.00 | 44 | 1016.7 |
| 20260506163052 | 62 | 348 | 7.0 | 10.0 | 0.00 | 0.00 | 0.00 | 47 | 1016.8 |
| 20260506161549 | 61 | 325 | 2.0 | 9.0 | 0.00 | 0.00 | 0.00 | 53 | 1016.7 |
| 20260506160044 | 60 | 311 | 5.0 | 10.0 | 0.00 | 0.00 | 0.00 | 54 | 1016.5 |
| 20260506154547 | 60 | 332 | 4.0 | 9.0 | 0.00 | 0.00 | 0.00 | 54 | 1016.3 |
| 20260506153038 | 59 | 339 | 4.0 | 9.0 | 0.00 | 0.00 | 0.00 | 58 | 1016.5 |
| 20260506151538 | 59 | 341 | 3.0 | 7.0 | 0.00 | 0.00 | 0.00 | 60 | 1016.5 |
| 20260506150033 | 57 | 350 | 3.0 | 6.0 | 0.00 | 0.00 | 0.00 | 63 | 1016.5 |
| 20260506144529 | 56 | 324 | 2.0 | 6.0 | 0.00 | 0.00 | 0.00 | 67 | 1016.4 |
| 20260506143028 | 54 | 7 | 3.0 | 6.0 | 0.00 | 0.00 | 0.00 | 69 | 1016.4 |
| 20260506141528 | 54 | 339 | 0.0 | 0.0 | 0.00 | 0.00 | 0.00 | 70 | 1016.4 |
| 20260506140029 | 51 | 339 | 0.0 | 5.0 | 0.00 | 0.00 | 0.00 | 74 | 1016.1 |
| 20260506134523 | 50 | 346 | 4.0 | 7.0 | 0.00 | 0.00 | 0.00 | 75 | 1015.8 |
| 20260506133040 | 50 | 343 | 5.0 | 9.0 | 0.00 | 0.00 | 0.00 | 76 | 1015.5 |
| 20260506131526 | 49 | 360 | 4.0 | 7.0 | 0.00 | 0.00 | 0.00 | 77 | 1015.4 |
| 20260506130022 | 49 | 14 | 6.0 | 11.0 | 0.00 | 0.00 | 0.00 | 77 | 1015.2 |
| 20260506124516 | 49 | 347 | 5.0 | 9.0 | 0.00 | 0.00 | 0.00 | 77 | 1015.1 |
| 20260506123014 | 49 | 344 | 4.0 | 8.0 | 0.00 | 0.00 | 0.00 | 77 | 1015.1 |
| 20260506121512 | 50 | 321 | 3.0 | 7.0 | 0.00 | 0.00 | 0.00 | 76 | 1014.9 |
| 20260506120015 | 50 | 335 | 4.0 | 9.0 | 0.00 | 0.00 | 0.00 | 76 | 1014.6 |
| 20260506114506 | 51 | 342 | 5.0 | 10.0 | 0.00 | 0.00 | 0.00 | 75 | 1014.5 |
| 20260506113009 | 51 | 1 | 6.0 | 10.0 | 0.00 | 0.00 | 0.00 | 74 | 1014.4 |
| 20260506111503 | 51 | 326 | 5.0 | 9.0 | 0.00 | 0.00 | 0.00 | 74 | 1014.3 |
| 20260506110002 | 51 | 334 | 6.0 | 10.0 | 0.00 | 0.00 | 0.00 | 74 | 1014.1 |
| 20260506104601 | 51 | 354 | 6.0 | 11.0 | 0.00 | 0.00 | 0.00 | 73 | 1014.0 |
| 20260506103100 | 52 | 313 | 5.0 | 10.0 | 0.00 | 0.00 | 0.00 | 72 | 1013.9 |
| 20260506101556 | 53 | 56 | 6.0 | 15.0 | 0.00 | 0.00 | 0.00 | 70 | 1013.5 |
| 20260506100053 | 54 | 18 | 5.0 | 13.0 | 0.00 | 0.00 | 0.00 | 67 | 1013.5 |
| 20260506094547 | 54 | 326 | 6.0 | 11.0 | 0.00 | 0.00 | 0.00 | 68 | 1013.2 |
| 20260506093045 | 54 | 9 | 5.0 | 10.0 | 0.00 | 0.00 | 0.00 | 67 | 1013.2 |
| 20260506091542 | 54 | 349 | 2.0 | 8.0 | 0.00 | 0.00 | 0.00 | 67 | 1013.1 |
| 20260506090040 | 55 | 335 | 6.0 | 11.0 | 0.00 | 0.00 | 0.00 | 64 | 1013.0 |
| 20260506084542 | 55 | 49 | 7.0 | 11.0 | 0.00 | 0.00 | 0.00 | 64 | 1013.0 |
| 20260506083037 | 56 | 323 | 7.0 | 13.0 | 0.00 | 0.00 | 0.00 | 63 | 1012.9 |
| 20260506081534 | 56 | 314 | 8.0 | 13.0 | 0.00 | 0.00 | 0.00 | 64 | 1013.0 |
| 20260506073029 | 55 | 347 | 5.0 | 8.0 | 0.00 | 0.00 | 0.00 | 63 | 1012.8 |
| 20260506071526 | 55 | 334 | 3.0 | 6.0 | 0.00 | 0.00 | 0.00 | 64 | 1012.6 |
| 20260506061519 | 57 | 324 | 5.0 | 9.0 | 0.00 | 0.00 | 0.00 | 56 | 1012.2 |
| 20260506044517 | 60 | 338 | 0.0 | 7.0 | 0.00 | 0.01 | 0.00 | 56 | 1011.0 |
| 20260506043014 | 60 | 330 | 5.0 | 10.0 | 0.00 | 0.01 | 0.00 | 56 | 1010.8 |
| 20260506041514 | 61 | 27 | 5.0 | 9.0 | 0.00 | 0.01 | 0.00 | 56 | 1010.8 |